Flag for Germany Weather past 2 weeks in Rostock, Mecklenburg-Western Pomerania, Germany

Now
56 °F

Passing clouds.


Feels Like: 56 °F
Forecast: 58 / 78 °F
Wind: 3 mph from Southwest

Location: Rostock-Warnemuende

Current Time: Aug 29, 2015 at 8:14:48 AM

Latest Report: Aug 29, 2015 at 7:00 AM


Visibility: 11 mi

Pressure: 30.20 "Hg

Humidity: 88%

Dew point: 52 °F

Location of RostockLocation

Historic Weather in Rostock — Graph

°F

Rostock temperature yesterday

Maximum temperature yesterday: 67 °F (at 7:00 PM)
Minimum temperature yesterday: 57 °F (at 6:00 AM)
Average temperature yesterday: 61 °F

Past Weeks' High & Low Weather Summary

 TemperatureHumidityPressure
High82 °F (Aug 14, 4:00 PM)100% (Aug 16, 6:00 AM)30.33 "Hg (Aug 16, 6:00 AM)
Low55 °F (Aug 29, 6:00 AM)22% (Aug 21, 2:00 PM)29.69 "Hg (Aug 15, 5:00 AM)
Average67 °F70%29.97 "Hg
* Reported Aug 14 7:00 AM — Aug 29 6:00 AM, Rostock, Weather by CustomWeather, © 2015

Note: Actual official high and low records may vary slightly from our data, if they occured in-between our weather recording intervals... More about our weather records

Advertising

Rostock weather history for previous 24 hours

 ConditionsComfort  
Time TempWeatherWind HumidityBarometerVisibility
6:00 AM
Sat, Aug 29
55 °FPassing clouds.5 mph90%30.20 "Hg12 mi
5:00 AM56 °FClear.5 mph88%30.18 "Hg12 mi
4:00 AM57 °FClear.3 mph85%30.17 "Hg14 mi
3:00 AM59 °FPassing clouds.5 mph81%30.16 "Hg16 mi
2:00 AM60 °FOvercast.3 mph82%30.15 "Hg16 mi
1:00 AM60 °FPassing clouds.3 mph83%30.14 "Hg16 mi
12:00 AM61 °FOvercast.3 mph80%30.12 "Hg16 mi
11:00 PM
Fri, Aug 28
61 °FOvercast.3 mph75%30.11 "Hg16 mi
10:00 PM61 °FSprinkles. Overcast.3 mph75%30.10 "Hg16 mi
9:00 PM62 °FPassing clouds.3 mph75%30.08 "Hg19 mi
8:00 PM64 °FPassing clouds.3 mph67%30.06 "Hg25 mi
7:00 PM67 °FPassing clouds.3 mph59%30.05 "Hg28 mi
6:00 PM66 °FScattered clouds.5 mph72%30.04 "Hg31 mi
5:00 PM66 °FScattered clouds.5 mph71%30.04 "Hg31 mi
4:00 PM66 °FScattered clouds.6 mph71%30.03 "Hg31 mi
3:00 PM65 °FScattered clouds.6 mph72%30.03 "Hg31 mi
2:00 PM65 °FScattered clouds.7 mph74%30.02 "Hg31 mi
1:00 PM64 °FScattered clouds.8 mph75%30.01 "Hg31 mi
12:00 PM63 °FScattered clouds.7 mph78%29.99 "Hg31 mi
11:00 AM62 °FScattered clouds.7 mph80%29.98 "Hg22 mi
10:00 AM62 °FPartly sunny.6 mph81%29.96 "Hg16 mi
9:00 AM60 °FOvercast.2 mph87%29.93 "Hg9 mi
8:00 AM58 °FOvercast.3 mph92%29.91 "Hg9 mi
Weather by CustomWeather, © 2015

See weather overviewHow to use our weather pages